Volver al catálogo

STARLINK-35278

ActivoComunicacionesVLEO
NORAD 65902·PAYLOAD·🇺🇸 United States

Lanzado Oct 7, 2025 desde Cape Canaveral Space Force Station

Loading…

Próximos Pases (próximas 24 horas)

TLE

ActualizadoSource: CelesTrak SupGP

Época: Sep 14, 2026, 21:06 UTC

1 65902C 25224W   26257.87965278  .00034561  00000+0  10209-2 0  2570
2 65902  53.1573 211.7894 0001295  92.2095 178.7063 15.34379840    11

Sigue STARLINK-35278 en tiempo real con AllMySat

Download on the App Store